カタログに戻る

SL-16 R/B

運用中LEO
NORAD 31793·ROCKET BODY·🇷🇺 Russia

打ち上げ Jun 29, 2007 から Baikonur Cosmodrome

Loading…

次のパス (今後24時間)

TLE

最新Source: Space-Track

元期: Sep 14, 2026, 14:31 UTC

1 31793U 07029B   26257.60552376 -.00000133  00000-0 -43979-4 0  9992
2 31793  70.9757 135.2619 0002131 279.7484  92.7019 14.14864290992091

AllMySatでSL-16 R/Bをリアルタイム追跡

Download on the App Store